Flag for U.S.A. Weather past 2 weeks in Panama City, Florida, U.S.A.

Now
54 °F

Clear.


Feels Like: 52 °F
Forecast: 46 / 57 °F
Wind: 8 mph from Northwest

Location: Tyndall Air Force Base

Current Time: Dec 24, 2014 at 7:42:50 PM

Latest Report: Dec 24, 2014 at 6:58 PM


Visibility: 10 mi

Pressure: 29.97 "Hg

Humidity: 100%

Dew point: 54 °F

Location of Panama CityLocation

Historic Weather in Panama City — Graph

°F

Panama City temperature yesterday

Maximum temperature yesterday: 71 °F (at 8:58 PM)
Minimum temperature yesterday: 63 °F (at 8:58 AM)
Average temperature yesterday: 66 °F

Past Weeks' High & Low Weather Summary

 TemperatureHumidityPressure
High73 °F (Dec 22, 1:58 PM)100% (Dec 14, 8:58 PM)30.35 "Hg (Dec 14, 8:58 PM)
Low40 °F (Dec 11, 5:58 AM)32% (Dec 12, 1:58 PM)29.63 "Hg (Dec 24, 3:03 AM)
Average54 °F79%30.09 "Hg
* Reported Dec 9 6:58 PM — Dec 24 6:58 PM, Panama City, Weather by CustomWeather, © 2014

Note: Actual official high and low records may vary slightly from our data, if they occured in-between our weather recording intervals... More about our weather records

Advertising

Panama City weather history for previous 24 hours

 ConditionsComfort  
Time TempWeatherWind HumidityBarometerVisibility
6:58 PM
Dec 24
54 °FClear.8 mph100%29.97 "Hg10 mi
5:58 PM56 °FOvercast.14 mph100%29.94 "Hg10 mi
4:58 PM58 °FOvercast.13 mph100%29.87 "Hg10 mi
3:58 PM60 °FOvercast.16 mph100%29.86 "Hg10 mi
2:58 PM63 °FScattered clouds.14 mph100%29.84 "Hg10 mi
1:58 PM63 °FPartly sunny.18 mph100%29.82 "Hg10 mi
12:58 PM65 °FScattered clouds.16 mph100%29.80 "Hg10 mi
11:58 AM67 °FPartly sunny.13 mph100%29.79 "Hg10 mi
10:58 AM68 °FPassing clouds.12 mph100%29.81 "Hg10 mi
9:58 AM68 °FBroken clouds.14 mphN/A29.79 "Hg10 mi
8:58 AM67 °FFog.10 mph100%29.75 "Hg5 mi
7:58 AM66 °FLight rain. Fog.12 mph100%29.71 "Hg4 mi
6:58 AM67 °FThunderstorms. Fog.15 mph100%29.72 "Hg3 mi
6:02 AM68 °FLight rain. Fog.23 mph100%29.71 "Hg3 mi
6:00 AM70 °FThunderstorms. Fog.21 mph100%29.72 "Hg3 mi
4:58 AM71 °FPassing clouds.20 mph100%29.67 "Hg10 mi
3:58 AM70 °FLow clouds.21 mph100%29.66 "Hg8 mi
3:03 AM70 °FPassing clouds.21 mph100%29.63 "Hg10 mi
2:58 AM70 °FPartly cloudy.16 mph100%29.64 "Hg10 mi
1:58 AM72 °FLight rain. Passing clouds.18 mph100%29.68 "Hg10 mi
12:58 AM70 °FOvercast.18 mph100%29.70 "Hg10 mi
11:58 PM
Dec 23
70 °FOvercast.16 mph100%29.71 "Hg10 mi
10:58 PM69 °FOvercast.12 mph100%29.73 "Hg10 mi
9:58 PM70 °FOvercast.16 mph100%29.72 "Hg9 mi
8:58 PM71 °FClear.21 mph100%29.71 "Hg10 mi
7:58 PM69 °FPartly cloudy.17 mph100%29.74 "Hg10 mi
7:03 PM66 °FOvercast.10 mph100%29.73 "Hg10 mi
Weather by CustomWeather, © 2014

See weather overviewHow to use our weather pages